Terug naar catalogus

QIANFAN-29

ActiefCommunicatiePO
NORAD 61562·PAYLOAD·🇨🇳 China

Gelanceerd Oct 15, 2024 vanaf Taiyuan Satellite Launch Center

Loading…

Volgende Passages (komende 24 uur)

TLE

VersSource: Space-Track

Epoch: Sep 14, 2026, 21:49 UTC

1 61562U 24185L   26257.90903644  .00000130  00000-0  18217-3 0  9993
2 61562  88.9794  52.7630 0009030 342.4311  17.6526 13.51093001105084

Volg QIANFAN-29 in realtime met AllMySat

Download on the App Store